User: anonymous   Login
Location: *
(48.8667°N, 2.3331°E)
Time: 00:54:35
(UTC+00:00)
Language:

Cosmos 2322 Rocket - Orbit

View from above orbital plane
View from above orbital plane
View from above satellite
View from above satellite

Ground track
Ground track

The orbit data is extracted from the following two-line orbital elements,

1 23705U 95058B   20188.46056347 +.00000077 +00000-0 +63990-4 0  9993
2 23705 071.0193 209.0737 0011249 029.7425 330.4335 14.15135518274664
Epoch (UTC): 06 July 2020 11:03:12
Eccentricity: 0.0011249
inclination: 71.0193°
perigee height: 834 km
apogee height: 850 km
right ascension of ascending node: 209.0737°
argument of perigee: 29.7425°
revolutions per day: 14.15135518
mean anomaly at epoch: 330.4335°
orbit number at epoch: 27466

The dashed part of the orbit path shows where the satellite is in the earth's shadow,  

DLR